Location: Strohbehn Observatory
(42.4649°N, 93.8239°W)
Time: 00:21:17
(UTC-05:00)

SL-16 R/B - Visible Passes

Search period start: 31 July 2014 00:00
Search period end: 10 August 2014 00:00
Orbit: 843 x 846 km, 71.0° (Epoch: 30 July)

Date Brightness Start Highest point End Pass type
(mag) Time Alt. Az. Time Alt. Az. Time Alt. Az.
31 Jul 4.6 21:53:10 10° WNW 21:56:49 18° W 22:00:28 10° SW visible
01 Aug 4.6 21:38:55 10° WNW 21:42:42 19° W 21:46:28 10° SW visible
02 Aug 4.6 21:24:41 10° NW 21:28:34 19° W 21:32:26 10° SW visible
03 Aug 4.7 21:10:27 10° NW 21:14:27 20° W 21:18:25 10° SW visible
04 Aug 4.7 20:56:14 10° NW 21:00:19 21° W 21:04:23 10° SSW visible
